CST,Max TemperatureF,Mean TemperatureF,Min TemperatureF,Max Dew PointF,MeanDew PointF,Min DewpointF,Max Humidity, Mean Humidity, Min Humidity, Max Sea Level PressureIn, Mean Sea Level PressureIn, Min Sea Level PressureIn, Max VisibilityMiles, Mean VisibilityMiles, Min VisibilityMiles, Max Wind SpeedMPH, Mean Wind SpeedMPH, Max Gust SpeedMPH,PrecipitationIn, CloudCover, Events, WindDirDegrees
2013-2-1,17,6,-5,10,-5,-17,73,61,49,30.32,30.17,29.99,10,10,4,14,5,18,0.00,4,Snow,216
2013-2-2,26,14,3,21,6,-6,86,71,57,30.17,30.07,29.92,10,9,2,24,7,34,0.00,6,Snow,295
2013-2-3,23,16,10,14,9,1,80,70,63,30.10,30.01,29.88,10,9,4,29,12,34,0.00,6,Snow,342
2013-2-4,26,16,6,18,7,1,79,69,53,30.06,29.94,29.75,10,10,7,17,6,,0.00,4,Snow,3
2013-2-5,35,24,12,28,18,7,86,73,59,30.10,29.88,29.68,10,10,3,22,11,33,0.00,4,Snow,274
2013-2-6,41,26,10,32,22,5,81,74,61,30.09,29.95,29.85,10,10,7,18,3,28,0.00,2,,144
2013-2-7,33,28,24,30,22,19,87,80,69,30.26,30.10,29.93,10,5,1,16,9,20,0.00,8,,329
2013-2-8,30,28,26,21,19,16,74,71,64,30.34,30.27,30.17,10,10,7,22,5,28,0.00,8,,140
2013-2-9,35,32,28,28,25,21,81,75,70,30.18,30.00,29.84,10,7,5,25,17,30,0.00,8,,142
2013-2-10,37,34,30,34,30,25,93,84,75,29.84,29.44,29.23,10,3,0,25,12,34,0.38,8,Fog-Rain-Snow-Thunderstorm,100
2013-2-11,30,26,23,25,18,12,86,72,63,30.08,29.87,29.44,10,6,1,32,25,41,0.00,8,Snow,283
2013-2-12,37,29,21,27,19,12,80,68,56,30.08,29.93,29.83,10,10,10,15,6,18,0.00,2,,215
2013-2-13,44,34,24,32,26,18,81,70,53,29.83,29.70,29.59,10,10,5,22,2,29,0.00,5,Rain,241
2013-2-14,35,25,14,30,20,3,86,72,58,30.23,29.95,29.63,10,9,4,25,18,32,0.00,4,Snow,299
2013-2-15,21,16,10,10,6,3,79,68,58,30.33,30.30,30.23,10,10,7,16,12,23,0.00,1,Snow,297
2013-2-16,28,20,12,19,13,7,85,70,59,30.27,30.15,30.05,10,8,1,10,3,17,0.00,5,Snow,284
2013-2-17,39,30,21,28,22,16,80,70,60,30.05,29.82,29.57,10,10,10,24,11,31,0.00,0,,140
2013-2-18,37,21,5,30,16,-4,75,69,58,29.92,29.69,29.53,10,8,2,34,17,47,0.00,5,Snow,286
2013-2-19,5,2,-2,-6,-8,-11,66,63,56,30.39,30.18,29.93,10,8,2,32,26,43,0.00,5,,297
2013-2-20,15,5,-5,5,-4,-15,67,63,56,30.45,30.40,30.34,10,10,10,14,6,17,0.00,0,,312
2013-2-21,24,16,8,16,7,1,86,64,50,30.38,30.22,30.00,10,9,1,16,5,20,0.00,4,Snow,54
2013-2-22,26,22,19,18,16,14,86,78,69,30.00,29.92,29.88,10,6,1,13,7,9,0.02,8,Snow,324
2013-2-23,26,14,0,14,6,-6,85,68,47,29.94,29.90,29.87,10,10,0,10,4,,0.00,2,Snow,254
2013-2-24,28,14,0,21,9,-8,80,73,64,30.09,30.03,29.94,10,6,0,0,0,,0.00,6,Snow,-1
2013-2-25,28,26,24,23,21,19,86,77,74,30.11,30.07,30.02,7,5,0,0,0,,0.00,8,Fog,-1
2013-2-26,32,26,19,25,20,16,86,79,69,30.04,29.94,29.88,7,4,0,17,5,20,0.00,5,Fog,325
2013-2-27,32,26,21,23,18,14,86,75,60,30.06,29.94,29.88,10,9,5,24,16,32,0.00,2,,304
2013-2-28,32,26,19,21,19,12,86,74,64,30.21,30.15,30.06,10,10,7,15,11,17,0.00,7,Snow,305